Regional Weather Roundup
Issued by NWS

Home | Current Version | Previous Version | Text Only | Print | Product List | Glossary On
Versions: 1 2 3 4 5 6 7 8 9 10 11 12 13 14 15 16 17 18 19 20 21 22 23 24 25 26 27 28 29 30 31 32 33 34 35 36 37 38 39 40 41 42 43 44 45 46 47 48 49 50
000
ASUS43 KBIS 291920
RWRND

NORTH DAKOTA REGIONAL WEATHER ROUNDUP
NATIONAL WEATHER SERVICE BISMARCK ND
200 PM CDT FRI AUG 29 2014

NOTE: "FAIR" INDICATES FEW OR NO CLOUDS BELOW 12,000 FEET WITH NO
SIGNIFICANT WEATHER AND/OR OBSTRUCTIONS TO VISIBILITY.


NDZ001>003-009>011-017-292000-
NORTHWEST NORTH DAKOTA

CITY           SKY/WX    TMP DP  RH WIND       PRES   REMARKS
WILLISTON      PTSUNNY   70  51  51 N10       29.98S
MINOT          CLOUDY    66  55  67 N16       29.93R
MINOT AFB      CLOUDY    65  55  68 N16       29.93R
$$

NDZ018>021-031>035-040>046-292000-
SOUTHWEST NORTH DAKOTA

CITY           SKY/WX    TMP DP  RH WIND       PRES   REMARKS
BISMARCK       CLOUDY    70  60  70 N17G23    29.90S
DICKINSON      CLOUDY    65  55  70 NW13G21   29.97S
GARRISON         N/A     67  56  67 N12G22    29.92R
HETTINGER ARPT PTSUNNY   70  57  63 NW15G25   29.97S
$$

NDZ004>008-012>016-024-026-027-054-292000-
NORTHEAST NORTH DAKOTA

CITY           SKY/WX    TMP DP  RH WIND       PRES   REMARKS
GRAND FORKS    CLOUDY    71  65  81 CALM      29.76S
GRND FRKS AFB  CLOUDY    70  69  99 NE1       29.77S
DEVILS LAKE    CLOUDY    63  54  72 N26       29.83R
$$

NDZ022-023-025-028>030-036>039-047>053-292000-
SOUTHEAST NORTH DAKOTA

CITY           SKY/WX    TMP DP  RH WIND       PRES   REMARKS
FARGO          CLOUDY    73  65  75 CALM      29.76F
JAMESTOWN      CLOUDY    72  63  73 NW14      29.80R
$$



USA.gov is the U.S. government's official web portal to all federal, state and local government web resources and services.